This demonstration page uses our WeatherBlox Daily Observations layout. Learn more.

Left ArrowRight Arrow

44.89941, -97.11507

Hourly Observations for October 16, 2021

Temp ( °F °C ) Dew Point ( °F °C ) Humidity (%) Winds ( mph kmh ) Pressure ( in mb ) Visibility ( mi km ) Precip ( " mm )
12:53 am 00:53 Clear 34 1.1 31 -0.6 89 89 W 9 15 30.07 1018 10 16 N/A
1:53 am 01:53 Clear 33 0.6 30 -1.1 89 89 WSW 9 15 30.08 1019 10 16 N/A
2:53 am 02:53 Clear 35 1.7 30 -1.1 82 82 W 9 15 30.09 1019 10 16 N/A
3:53 am 03:53 Clear 35 1.7 30 -1.1 82 82 W 10 17 30.09 1019 10 16 N/A
4:53 am 04:53 Clear 38 3.3 32 undefined 79 79 W 10 17 30.09 1019 10 16 N/A
5:53 am 05:53 Clear 33 0.6 30 -1.1 89 89 VRB 3 6 30.11 1020 10 16 N/A
6:53 am 06:53 Clear 32 undefined 29 -1.7 88 88 S 5 7 30.13 1020 10 16 N/A
7:53 am 07:53 Sunny 31 -0.6 29 -1.7 92 92 S 3 6 30.13 1020 10 16 N/A
8:53 am 08:53 Sunny 35 1.7 33 0.6 93 93 SW 6 9 30.14 1021 10 16 N/A
9:53 am 09:53 Sunny 42 5.6 36 2.2 79 79 SW 10 17 30.14 1021 10 16 N/A
10:53 am 10:53 Sunny 48 8.9 38 3.3 68 68 SSW 10 17 30.12 1020 10 16 N/A
11:53 am 11:53 Sunny 53 11.7 37 2.8 55 55 WSW 15 24 30.12 1020 10 16 N/A
12:53 pm 12:53 Sunny 55 12.8 37 2.8 51 51 WSW 15 24 30.11 1020 10 16 N/A
1:53 pm 13:53 Sunny 57 13.9 38 3.3 49 49 W 14 22 30.11 1020 10 16 N/A
2:53 pm 14:53 Sunny 60 15.6 38 3.3 44 44 W 17 28 30.09 1019 10 16 N/A
3:53 pm 15:53 Sunny 61 16.1 39 3.9 44 44 W 10 17 30.10 1019 10 16 N/A
4:53 pm 16:53 Sunny 62 16.7 39 3.9 43 43 W 12 19 30.10 1019 10 16 N/A
5:53 pm 17:53 Sunny 59 15 40 4.4 49 49 WNW 7 11 30.11 1020 10 16 N/A
6:53 pm 18:53 Clear 55 12.8 39 3.9 55 55 W 7 11 30.12 1020 10 16 N/A
7:53 pm 19:53 Clear 48 8.9 38 3.3 68 68 W 7 11 30.14 1021 10 16 N/A
8:53 pm 20:53 Clear 50 10 39 3.9 66 66 W 7 11 30.15 1021 10 16 N/A
9:53 pm 21:53 Clear 45 7.2 38 3.3 77 77 SE 3 6 30.15 1021 10 16 N/A
10:53 pm 22:53 Clear 42 5.6 38 3.3 85 85 N N/A 30.15 1021 10 16 N/A
11:53 pm 23:53 Clear 43 6.1 40 4.4 89 89 N N/A 30.14 1021 10 16 N/A

Powered by AerisWeather